| time (UTC) | temp F | wind direction | speed knots | gust knots | rain 1hr in | rain 24hr in | rain mn in | humidity % | barometer mb |
| 20260508102233 | 34 | 275 | 1.7 | 1.7 | 0.00 | 0.00 | 0.00 | 94 | 1019.0 |
| 20260508101730 | 34 | 267 | 0.9 | 0.9 | 0.00 | 0.00 | 0.00 | 94 | 1019.0 |
| 20260508101228 | 34 | 267 | 0.9 | 0.9 | 0.00 | 0.00 | 0.00 | 93 | 1019.0 |
| 20260508100725 | 34 | 267 | 0.9 | 0.9 | 0.00 | 0.00 | 0.00 | 93 | 1019.0 |
| 20260508100223 | 35 | 267 | 0.9 | 0.9 | 0.00 | 0.00 | 0.00 | 92 | 1018.8 |
| 20260508095719 | 35 | 267 | 1.7 | 1.7 | 0.00 | 0.00 | 0.00 | 91 | 1018.6 |
| 20260508095217 | 36 | 267 | 0.9 | 0.9 | 0.00 | 0.00 | 0.00 | 90 | 1018.9 |
| 20260508094713 | 37 | 267 | 0.9 | 0.9 | 0.00 | 0.00 | 0.00 | 85 | 1018.9 |
| 20260508094210 | 38 | 265 | 0.9 | 1.7 | 0.00 | 0.00 | 0.00 | 83 | 1018.8 |
| 20260508093707 | 39 | 256 | 1.7 | 2.6 | 0.00 | 0.00 | 0.00 | 82 | 1018.5 |
| 20260508093205 | 38 | 267 | 1.7 | 2.6 | 0.00 | 0.00 | 0.00 | 84 | 1018.6 |
| 20260508092702 | 36 | 262 | 1.7 | 1.7 | 0.00 | 0.00 | 0.00 | 90 | 1018.8 |
| 20260508092200 | 34 | 275 | 0.9 | 1.7 | 0.00 | 0.00 | 0.00 | 93 | 1018.7 |
| 20260508091657 | 34 | 289 | 0.0 | 0.0 | 0.00 | 0.00 | 0.00 | 92 | 1018.7 |
| 20260508091154 | 35 | 289 | 0.9 | 0.9 | 0.00 | 0.00 | 0.00 | 92 | 1018.6 |
| 20260508090652 | 35 | 289 | 0.9 | 1.7 | 0.00 | 0.00 | 0.00 | 91 | 1018.5 |
| 20260508090149 | 35 | 289 | 0.0 | 0.0 | 0.00 | 0.00 | 0.00 | 91 | 1018.4 |
| 20260508085640 | 35 | 289 | 0.0 | 0.0 | 0.00 | 0.00 | 0.00 | 91 | 1018.3 |
| 20260508085138 | 34 | 289 | 0.0 | 0.0 | 0.00 | 0.00 | 0.00 | 91 | 1018.2 |
| 20260508084634 | 34 | 289 | 0.0 | 0.0 | 0.00 | 0.00 | 0.00 | 91 | 1018.4 |
| 20260508084131 | 34 | 289 | 0.0 | 0.0 | 0.00 | 0.00 | 0.00 | 90 | 1018.1 |
| 20260508083628 | 35 | 289 | 0.0 | 0.0 | 0.00 | 0.00 | 0.00 | 89 | 1018.2 |
| 20260508083126 | 36 | 289 | 0.0 | 0.0 | 0.00 | 0.00 | 0.00 | 89 | 1018.3 |
| 20260508082621 | 36 | 289 | 0.0 | 0.0 | 0.00 | 0.00 | 0.00 | 90 | 1018.3 |
| 20260508082119 | 35 | 289 | 0.0 | 0.0 | 0.00 | 0.00 | 0.00 | 91 | 1018.4 |
| 20260508081616 | 36 | 289 | 0.0 | 0.0 | 0.00 | 0.00 | 0.00 | 91 | 1018.2 |
| 20260508081112 | 35 | 289 | 0.0 | 0.0 | 0.00 | 0.00 | 0.00 | 91 | 1018.3 |
| 20260508080610 | 35 | 289 | 0.0 | 0.0 | 0.00 | 0.00 | 0.00 | 90 | 1018.2 |
| 20260508080108 | 35 | 289 | 0.0 | 0.0 | 0.00 | 0.00 | 0.00 | 90 | 1018.3 |
| 20260508075603 | 35 | 289 | 0.0 | 0.0 | 0.00 | 0.00 | 0.00 | 90 | 1018.3 |
| 20260508075101 | 35 | 289 | 0.0 | 0.0 | 0.00 | 0.00 | 0.00 | 90 | 1018.4 |
| 20260508074559 | 35 | 289 | 0.0 | 0.0 | 0.00 | 0.00 | 0.00 | 89 | 1018.4 |
| 20260508074055 | 36 | 289 | 0.0 | 0.0 | 0.00 | 0.00 | 0.00 | 89 | 1018.3 |
| 20260508073553 | 36 | 289 | 0.0 | 0.0 | 0.00 | 0.00 | 0.00 | 90 | 1018.1 |
| 20260508073050 | 36 | 289 | 0.0 | 0.0 | 0.00 | 0.00 | 0.00 | 90 | 1018.1 |
| 20260508072545 | 36 | 289 | 0.0 | 0.0 | 0.00 | 0.00 | 0.00 | 89 | 1018.2 |
| 20260508072043 | 36 | 289 | 0.0 | 0.0 | 0.00 | 0.00 | 0.00 | 89 | 1018.0 |
| 20260508071541 | 36 | 289 | 0.0 | 0.0 | 0.00 | 0.00 | 0.00 | 89 | 1018.1 |
| 20260508071038 | 36 | 289 | 0.0 | 0.0 | 0.00 | 0.00 | 0.00 | 88 | 1018.1 |
| 20260508070536 | 37 | 289 | 0.0 | 0.0 | 0.00 | 0.00 | 0.00 | 88 | 1018.2 |
| 20260508070035 | 37 | 289 | 0.0 | 0.0 | 0.00 | 0.00 | 0.00 | 87 | 1018.2 |
| 20260508065531 | 37 | 289 | 0.0 | 0.0 | 0.00 | 0.00 | 0.00 | 86 | 1018.0 |
| 20260508065029 | 37 | 289 | 0.0 | 0.0 | 0.00 | 0.00 | 0.00 | 86 | 1018.3 |
| 20260508064527 | 37 | 289 | 0.0 | 0.0 | 0.00 | 0.00 | 0.00 | 86 | 1018.2 |
| 20260508064024 | 37 | 289 | 0.0 | 0.0 | 0.00 | 0.00 | 0.00 | 85 | 1018.3 |
| 20260508063521 | 37 | 289 | 0.0 | 0.0 | 0.00 | 0.00 | 0.00 | 85 | 1018.3 |
| 20260508063019 | 37 | 289 | 0.0 | 0.0 | 0.00 | 0.00 | 0.00 | 84 | 1018.4 |
| 20260508062516 | 37 | 289 | 0.0 | 0.0 | 0.00 | 0.00 | 0.00 | 82 | 1018.5 |
| 20260508062013 | 38 | 289 | 0.0 | 0.0 | 0.00 | 0.00 | 0.00 | 81 | 1018.4 |
| 20260508061511 | 39 | 289 | 0.0 | 0.0 | 0.00 | 0.00 | 0.00 | 78 | 1018.5 |
| 20260508061007 | 40 | 289 | 0.0 | 0.0 | 0.00 | 0.00 | 0.00 | 77 | 1018.6 |
| 20260508060504 | 41 | 289 | 0.0 | 0.9 | 0.00 | 0.00 | 0.00 | 76 | 1018.6 |
| 20260508060001 | 42 | 289 | 0.9 | 1.7 | 0.00 | 0.00 | 0.00 | 74 | 1018.5 |
| 20260508055457 | 42 | 297 | 1.7 | 1.7 | 0.00 | 0.00 | 0.00 | 74 | 1018.5 |
| 20260508054953 | 41 | 301 | 0.9 | 2.6 | 0.00 | 0.00 | 0.00 | 74 | 1018.6 |
| 20260508054450 | 42 | 271 | 1.7 | 3.5 | 0.00 | 0.00 | 0.00 | 73 | 1018.3 |
| 20260508053947 | 42 | 308 | 0.0 | 0.0 | 0.00 | 0.00 | 0.00 | 74 | 1018.3 |
| 20260508053444 | 42 | 308 | 1.7 | 3.5 | 0.00 | 0.00 | 0.00 | 74 | 1018.4 |
| 20260508052942 | 42 | 291 | 0.9 | 1.7 | 0.00 | 0.00 | 0.00 | 74 | 1018.1 |
| 20260508052439 | 42 | 277 | 1.7 | 2.6 | 0.00 | 0.00 | 0.00 | 74 | 1018.3 |
| 20260508051936 | 42 | 294 | 1.7 | 2.6 | 0.00 | 0.00 | 0.00 | 75 | 1018.3 |
| 20260508051431 | 42 | 316 | 2.6 | 2.6 | 0.00 | 0.00 | 0.00 | 75 | 1018.1 |
| 20260508050927 | 42 | 294 | 2.6 | 3.5 | 0.00 | 0.00 | 0.00 | 76 | 1018.0 |
| 20260508050424 | 42 | 291 | 1.7 | 2.6 | 0.00 | 0.00 | 0.00 | 76 | 1018.0 |
| 20260508045920 | 42 | 298 | 1.7 | 2.6 | 0.00 | 0.00 | 0.00 | 77 | 1018.0 |
| 20260508045418 | 42 | 303 | 1.7 | 2.6 | 0.00 | 0.00 | 0.00 | 77 | 1018.0 |
| 20260508044916 | 42 | 308 | 1.7 | 2.6 | 0.00 | 0.00 | 0.00 | 76 | 1018.0 |
| 20260508044413 | 42 | 306 | 1.7 | 3.5 | 0.00 | 0.00 | 0.00 | 76 | 1018.0 |
| 20260508043908 | 42 | 311 | 2.6 | 2.6 | 0.00 | 0.00 | 0.00 | 76 | 1017.7 |
| 20260508043406 | 42 | 296 | 1.7 | 2.6 | 0.00 | 0.00 | 0.00 | 77 | 1017.9 |
| 20260508042902 | 42 | 301 | 1.7 | 2.6 | 0.00 | 0.00 | 0.00 | 79 | 1018.0 |
| 20260508042400 | 42 | 300 | 1.7 | 1.7 | 0.00 | 0.00 | 0.00 | 79 | 1018.0 |
| 20260508041856 | 42 | 305 | 0.9 | 1.7 | 0.00 | 0.00 | 0.00 | 78 | 1018.0 |
| 20260508041353 | 42 | 306 | 1.7 | 1.7 | 0.00 | 0.00 | 0.00 | 78 | 1018.0 |
| 20260508040849 | 43 | 297 | 1.7 | 1.7 | 0.00 | 0.00 | 0.00 | 77 | 1017.7 |
| 20260508040347 | 44 | 292 | 0.9 | 3.5 | 0.00 | 0.00 | 0.00 | 76 | 1017.6 |
| 20260508035844 | 44 | 307 | 1.7 | 2.6 | 0.00 | 0.00 | 0.00 | 77 | 1017.6 |
| 20260508035341 | 44 | 301 | 2.6 | 2.6 | 0.00 | 0.00 | 0.00 | 77 | 1017.7 |
| 20260508034838 | 44 | 290 | 1.7 | 3.5 | 0.00 | 0.00 | 0.00 | 76 | 1017.5 |
| 20260508034335 | 44 | 281 | 2.6 | 5.2 | 0.00 | 0.00 | 0.00 | 75 | 1017.6 |
| 20260508033832 | 44 | 291 | 1.7 | 3.5 | 0.00 | 0.00 | 0.00 | 76 | 1017.5 |
| 20260508033330 | 45 | 303 | 1.7 | 3.5 | 0.00 | 0.00 | 0.00 | 75 | 1017.7 |
| 20260508032827 | 45 | 299 | 3.5 | 3.5 | 0.00 | 0.00 | 0.00 | 75 | 1017.7 |
| 20260508032325 | 45 | 280 | 2.6 | 3.5 | 0.00 | 0.00 | 0.00 | 75 | 1017.6 |
| 20260508031821 | 45 | 305 | 2.6 | 3.5 | 0.00 | 0.00 | 0.00 | 74 | 1017.4 |
| 20260508031318 | 45 | 294 | 2.6 | 3.5 | 0.00 | 0.00 | 0.00 | 75 | 1017.5 |
| 20260508030814 | 45 | 295 | 1.7 | 2.6 | 0.00 | 0.00 | 0.00 | 76 | 1017.6 |
| 20260508030312 | 45 | 306 | 1.7 | 2.6 | 0.00 | 0.00 | 0.00 | 76 | 1017.5 |
| 20260508025808 | 45 | 294 | 1.7 | 2.6 | 0.00 | 0.00 | 0.00 | 76 | 1017.4 |
| 20260508025306 | 45 | 299 | 2.6 | 2.6 | 0.00 | 0.00 | 0.00 | 76 | 1017.4 |
| 20260508024801 | 45 | 297 | 1.7 | 1.7 | 0.00 | 0.00 | 0.00 | 77 | 1017.2 |
| 20260508024258 | 46 | 296 | 1.7 | 2.6 | 0.00 | 0.00 | 0.00 | 75 | 1017.0 |
| 20260508023755 | 46 | 295 | 1.7 | 5.2 | 0.00 | 0.00 | 0.00 | 74 | 1017.1 |
| 20260508023252 | 46 | 303 | 2.6 | 3.5 | 0.00 | 0.00 | 0.00 | 74 | 1017.2 |
| 20260508022748 | 46 | 290 | 2.6 | 5.2 | 0.00 | 0.00 | 0.00 | 73 | 1017.1 |
| 20260508022245 | 46 | 296 | 2.6 | 3.5 | 0.00 | 0.00 | 0.00 | 74 | 1017.1 |
| 20260508021742 | 46 | 293 | 3.5 | 3.5 | 0.00 | 0.00 | 0.00 | 75 | 1016.8 |
| 20260508021237 | 46 | 296 | 1.7 | 2.6 | 0.00 | 0.00 | 0.00 | 76 | 1017.0 |
| 20260508020735 | 46 | 299 | 2.6 | 2.6 | 0.00 | 0.00 | 0.00 | 76 | 1016.8 |
| 20260508020232 | 46 | 301 | 1.7 | 2.6 | 0.00 | 0.00 | 0.00 | 75 | 1016.8 |
| 20260508015729 | 46 | 301 | 2.6 | 2.6 | 0.00 | 0.00 | 0.00 | 75 | 1016.7 |
| 20260508015226 | 47 | 299 | 1.7 | 2.6 | 0.00 | 0.00 | 0.00 | 74 | 1016.7 |
| 20260508014723 | 47 | 297 | 2.6 | 3.5 | 0.00 | 0.00 | 0.00 | 73 | 1016.6 |
| 20260508014220 | 47 | 294 | 3.5 | 3.5 | 0.00 | 0.00 | 0.00 | 74 | 1016.5 |
| 20260508013715 | 47 | 298 | 2.6 | 3.5 | 0.00 | 0.00 | 0.00 | 74 | 1016.5 |
| 20260508013212 | 47 | 292 | 1.7 | 3.5 | 0.00 | 0.00 | 0.00 | 74 | 1016.5 |
| 20260508012710 | 47 | 309 | 2.6 | 3.5 | 0.00 | 0.00 | 0.00 | 73 | 1016.3 |
| 20260508012206 | 47 | 303 | 2.6 | 2.6 | 0.00 | 0.00 | 0.00 | 74 | 1016.3 |
| 20260508011705 | 48 | 300 | 1.7 | 3.5 | 0.00 | 0.00 | 0.00 | 74 | 1016.1 |
| 20260508011202 | 48 | 296 | 2.6 | 2.6 | 0.00 | 0.00 | 0.00 | 73 | 1016.2 |
| 20260508010658 | 48 | 294 | 2.6 | 2.6 | 0.00 | 0.00 | 0.00 | 71 | 1016.1 |
| 20260508010156 | 48 | 326 | 3.5 | 5.2 | 0.00 | 0.00 | 0.00 | 70 | 1016.0 |
| 20260508005653 | 49 | 284 | 1.7 | 2.6 | 0.00 | 0.00 | 0.00 | 70 | 1016.1 |
| 20260508005150 | 49 | 288 | 2.6 | 5.2 | 0.00 | 0.00 | 0.00 | 69 | 1015.9 |
| 20260508004646 | 49 | 315 | 3.5 | 7.0 | 0.00 | 0.00 | 0.00 | 70 | 1016.0 |
| 20260508004142 | 48 | 319 | 3.5 | 5.2 | 0.00 | 0.00 | 0.00 | 72 | 1015.9 |
| 20260508003639 | 49 | 312 | 1.7 | 2.6 | 0.00 | 0.00 | 0.00 | 73 | 1015.9 |
| 20260508003136 | 49 | 316 | 1.7 | 2.6 | 0.00 | 0.00 | 0.00 | 69 | 1015.7 |
| 20260508002632 | 50 | 312 | 1.7 | 3.5 | 0.00 | 0.00 | 0.00 | 69 | 1015.7 |
| 20260508002131 | 50 | 305 | 2.6 | 2.6 | 0.00 | 0.00 | 0.00 | 68 | 1015.8 |
| 20260508001625 | 51 | 292 | 1.7 | 3.5 | 0.00 | 0.00 | 0.00 | 66 | 1015.8 |
| 20260508001122 | 51 | 306 | 2.6 | 2.6 | 0.00 | 0.00 | 0.00 | 67 | 1015.6 |
| 20260508000618 | 51 | 306 | 2.6 | 6.1 | 0.00 | 0.00 | 0.00 | 65 | 1015.6 |
| 20260508000115 | 52 | 315 | 6.1 | 7.0 | 0.00 | 0.00 | 0.00 | 63 | 1015.5 |
| 20260507235612 | 52 | 318 | 5.2 | 9.6 | 0.00 | 0.00 | 0.00 | 63 | 1015.6 |
| 20260507235110 | 52 | 324 | 5.2 | 7.0 | 0.00 | 0.00 | 0.00 | 64 | 1015.5 |
| 20260507234606 | 52 | 317 | 7.0 | 8.7 | 0.00 | 0.00 | 0.00 | 62 | 1015.5 |
| 20260507234102 | 53 | 305 | 5.2 | 7.0 | 0.00 | 0.00 | 0.00 | 64 | 1015.4 |
| 20260507233559 | 53 | 310 | 4.3 | 7.0 | 0.00 | 0.00 | 0.00 | 64 | 1015.4 |
| 20260507233058 | 53 | 319 | 4.3 | 7.8 | 0.00 | 0.00 | 0.00 | 65 | 1015.3 |
| 20260507232553 | 53 | 304 | 5.2 | 7.8 | 0.00 | 0.00 | 0.00 | 64 | 1015.4 |
| 20260507232051 | 53 | 293 | 4.3 | 8.7 | 0.00 | 0.00 | 0.00 | 63 | 1015.5 |
| 20260507231547 | 53 | 318 | 5.2 | 7.8 | 0.00 | 0.00 | 0.00 | 63 | 1015.4 |
| 20260507231045 | 53 | 281 | 3.5 | 9.6 | 0.00 | 0.00 | 0.00 | 64 | 1015.2 |
| 20260507230541 | 54 | 290 | 6.1 | 7.8 | 0.00 | 0.00 | 0.00 | 64 | 1015.2 |
| 20260507230038 | 55 | 301 | 4.3 | 7.8 | 0.00 | 0.00 | 0.00 | 61 | 1015.3 |
| 20260507225533 | 55 | 293 | 7.8 | 9.6 | 0.00 | 0.00 | 0.00 | 61 | 1015.1 |
| 20260507225030 | 55 | 308 | 6.1 | 8.7 | 0.00 | 0.00 | 0.00 | 60 | 1015.1 |
| 20260507224525 | 56 | 303 | 2.6 | 7.8 | 0.00 | 0.00 | 0.00 | 61 | 1015.1 |
| 20260507224022 | 56 | 325 | 5.2 | 7.8 | 0.00 | 0.00 | 0.00 | 61 | 1015.2 |
| 20260507223518 | 55 | 320 | 4.3 | 9.6 | 0.00 | 0.00 | 0.00 | 59 | 1014.9 |
| 20260507223016 | 56 | 293 | 7.0 | 7.8 | 0.00 | 0.00 | 0.00 | 61 | 1014.8 |
| 20260507222513 | 55 | 303 | 9.6 | 12.2 | 0.00 | 0.00 | 0.00 | 63 | 1014.9 |
| 20260507222009 | 54 | 325 | 4.3 | 12.2 | 0.00 | 0.00 | 0.00 | 62 | 1015.1 |
| 20260507221505 | 54 | 316 | 7.0 | 11.3 | 0.00 | 0.00 | 0.00 | 63 | 1014.8 |
| 20260507221002 | 54 | 319 | 7.8 | 11.3 | 0.00 | 0.00 | 0.00 | 62 | 1014.7 |
| 20260507220500 | 55 | 307 | 7.8 | 15.6 | 0.00 | 0.00 | 0.00 | 60 | 1014.7 |
| 20260507215956 | 56 | 343 | 2.6 | 8.7 | 0.00 | 0.00 | 0.00 | 62 | 1014.5 |
| 20260507215452 | 57 | 311 | 7.8 | 8.7 | 0.00 | 0.00 | 0.00 | 61 | 1014.5 |
| 20260507214950 | 56 | 320 | 6.1 | 8.7 | 0.00 | 0.00 | 0.00 | 66 | 1014.5 |
| 20260507214448 | 55 | 301 | 5.2 | 9.6 | 0.00 | 0.00 | 0.00 | 64 | 1014.6 |
| 20260507213943 | 54 | 296 | 7.8 | 11.3 | 0.00 | 0.00 | 0.00 | 65 | 1014.6 |
| 20260507213440 | 55 | 307 | 7.0 | 7.8 | 0.00 | 0.00 | 0.00 | 64 | 1014.4 |
| 20260507212937 | 54 | 282 | 4.3 | 6.1 | 0.00 | 0.00 | 0.00 | 67 | 1014.6 |
| 20260507212432 | 54 | 310 | 7.0 | 7.0 | 0.00 | 0.00 | 0.00 | 66 | 1014.5 |
| 20260507211930 | 54 | 306 | 4.3 | 8.7 | 0.00 | 0.00 | 0.00 | 68 | 1014.4 |
| 20260507211426 | 54 | 299 | 3.5 | 5.2 | 0.00 | 0.00 | 0.00 | 69 | 1014.2 |
| 20260507210923 | 54 | 314 | 3.5 | 6.1 | 0.00 | 0.00 | 0.00 | 68 | 1014.2 |
| 20260507210420 | 54 | 307 | 5.2 | 8.7 | 0.00 | 0.00 | 0.00 | 68 | 1014.1 |
| 20260507205917 | 54 | 320 | 7.8 | 9.6 | 0.00 | 0.00 | 0.00 | 65 | 1014.1 |
| 20260507205414 | 54 | 292 | 7.8 | 11.3 | 0.00 | 0.00 | 0.00 | 65 | 1014.2 |
| 20260507204910 | 53 | 316 | 5.2 | 13.0 | 0.00 | 0.00 | 0.00 | 67 | 1014.1 |
| 20260507204406 | 53 | 303 | 7.0 | 9.6 | 0.00 | 0.00 | 0.00 | 67 | 1014.3 |
| 20260507203904 | 53 | 311 | 7.8 | 9.6 | 0.00 | 0.00 | 0.00 | 68 | 1014.2 |
| 20260507203402 | 53 | 291 | 7.0 | 11.3 | 0.00 | 0.00 | 0.00 | 67 | 1014.3 |
| 20260507202858 | 54 | 286 | 7.0 | 8.7 | 0.00 | 0.00 | 0.00 | 68 | 1014.4 |
| 20260507202355 | 55 | 279 | 4.3 | 9.6 | 0.00 | 0.00 | 0.00 | 67 | 1014.3 |
| 20260507201850 | 55 | 294 | 9.6 | 11.3 | 0.00 | 0.00 | 0.00 | 68 | 1014.3 |
| 20260507201345 | 54 | 350 | 6.1 | 9.6 | 0.00 | 0.00 | 0.00 | 67 | 1014.5 |
| 20260507200842 | 53 | 315 | 7.0 | 8.7 | 0.00 | 0.00 | 0.00 | 72 | 1014.7 |
| 20260507200338 | 52 | 297 | 6.1 | 8.7 | 0.00 | 0.00 | 0.00 | 70 | 1014.7 |
| 20260507195835 | 53 | 314 | 8.7 | 12.2 | 0.00 | 0.00 | 0.00 | 70 | 1014.8 |
| 20260507195332 | 53 | 281 | 2.6 | 7.0 | 0.00 | 0.00 | 0.00 | 71 | 1014.6 |
| 20260507194829 | 53 | 343 | 7.0 | 8.7 | 0.00 | 0.00 | 0.00 | 71 | 1014.6 |
| 20260507194325 | 53 | 276 | 4.3 | 14.8 | 0.00 | 0.00 | 0.00 | 72 | 1014.5 |
| 20260507193822 | 53 | 295 | 9.6 | 11.3 | 0.00 | 0.00 | 0.00 | 68 | 1014.8 |
| 20260507193319 | 53 | 309 | 6.1 | 8.7 | 0.00 | 0.00 | 0.00 | 70 | 1014.6 |
| 20260507192815 | 53 | 319 | 1.7 | 7.8 | 0.00 | 0.00 | 0.00 | 70 | 1014.8 |
| 20260507192312 | 53 | 319 | 8.7 | 11.3 | 0.00 | 0.00 | 0.00 | 70 | 1014.8 |
| 20260507191808 | 54 | 326 | 5.2 | 7.8 | 0.00 | 0.00 | 0.00 | 71 | 1014.6 |
| 20260507191304 | 53 | 290 | 5.2 | 7.0 | 0.00 | 0.00 | 0.00 | 69 | 1014.8 |
| 20260507190802 | 53 | 329 | 4.3 | 7.8 | 0.00 | 0.00 | 0.00 | 68 | 1014.9 |
| 20260507190300 | 53 | 312 | 3.5 | 7.0 | 0.00 | 0.00 | 0.00 | 70 | 1015.1 |
| 20260507185758 | 55 | 327 | 7.0 | 11.3 | 0.00 | 0.00 | 0.00 | 68 | 1014.9 |
| 20260507185254 | 56 | 39 | 6.1 | 7.8 | 0.00 | 0.00 | 0.00 | 64 | 1014.9 |
| 20260507184752 | 55 | 281 | 5.2 | 9.6 | 0.00 | 0.00 | 0.00 | 66 | 1015.1 |
| 20260507184250 | 54 | 285 | 4.3 | 7.8 | 0.00 | 0.00 | 0.00 | 66 | 1015.2 |
| 20260507183747 | 55 | 315 | 5.2 | 7.0 | 0.00 | 0.00 | 0.00 | 66 | 1015.2 |
| 20260507183243 | 55 | 325 | 3.5 | 7.0 | 0.00 | 0.00 | 0.00 | 67 | 1014.9 |
| 20260507182741 | 55 | 4 | 4.3 | 6.1 | 0.00 | 0.00 | 0.00 | 65 | 1014.9 |
| 20260507182236 | 55 | 294 | 1.7 | 5.2 | 0.00 | 0.00 | 0.00 | 70 | 1014.9 |
| 20260507181733 | 54 | 296 | 5.2 | 7.0 | 0.00 | 0.00 | 0.00 | 69 | 1014.7 |
| 20260507181229 | 54 | 294 | 5.2 | 8.7 | 0.00 | 0.00 | 0.00 | 67 | 1014.8 |
| 20260507180726 | 53 | 327 | 5.2 | 7.8 | 0.00 | 0.00 | 0.00 | 68 | 1015.1 |
| 20260507180223 | 52 | 335 | 4.3 | 6.1 | 0.00 | 0.00 | 0.00 | 70 | 1015.1 |
| 20260507175718 | 52 | 303 | 7.0 | 9.6 | 0.00 | 0.00 | 0.00 | 69 | 1015.2 |
| 20260507175215 | 53 | 347 | 5.2 | 7.0 | 0.00 | 0.00 | 0.00 | 71 | 1015.3 |
| 20260507174713 | 53 | 317 | 5.2 | 9.6 | 0.00 | 0.00 | 0.00 | 69 | 1015.2 |
| 20260507174211 | 53 | 296 | 4.3 | 7.8 | 0.00 | 0.00 | 0.00 | 68 | 1015.2 |
| 20260507173708 | 53 | 339 | 3.5 | 7.8 | 0.00 | 0.00 | 0.00 | 72 | 1014.9 |
| 20260507173205 | 53 | 330 | 5.2 | 7.8 | 0.00 | 0.00 | 0.00 | 69 | 1015.3 |
| 20260507172701 | 54 | 354 | 5.2 | 7.8 | 0.00 | 0.00 | 0.00 | 69 | 1015.1 |
| 20260507172158 | 53 | 332 | 6.1 | 7.0 | 0.00 | 0.00 | 0.00 | 71 | 1015.2 |
| 20260507171658 | 53 | 313 | 2.6 | 6.1 | 0.00 | 0.00 | 0.00 | 71 | 1015.2 |
| 20260507171156 | 53 | 329 | 5.2 | 9.6 | 0.00 | 0.00 | 0.00 | 70 | 1015.2 |
| 20260507170653 | 53 | 341 | 5.2 | 7.0 | 0.00 | 0.00 | 0.00 | 72 | 1015.4 |
| 20260507170150 | 53 | 308 | 6.1 | 7.0 | 0.00 | 0.00 | 0.00 | 70 | 1015.2 |
| 20260507165645 | 52 | 315 | 0.9 | 5.2 | 0.00 | 0.00 | 0.00 | 74 | 1015.3 |
| 20260507165142 | 53 | 290 | 7.0 | 9.6 | 0.00 | 0.00 | 0.00 | 73 | 1015.5 |
| 20260507164638 | 52 | 286 | 6.1 | 7.8 | 0.00 | 0.00 | 0.00 | 72 | 1015.4 |
| 20260507164135 | 53 | 307 | 3.5 | 8.7 | 0.00 | 0.00 | 0.00 | 70 | 1015.5 |
| 20260507163632 | 53 | 304 | 5.2 | 7.0 | 0.00 | 0.00 | 0.00 | 73 | 1015.5 |
| 20260507163130 | 52 | 7 | 0.9 | 5.2 | 0.00 | 0.00 | 0.00 | 73 | 1015.6 |
| 20260507162625 | 51 | 327 | 2.6 | 7.8 | 0.00 | 0.00 | 0.00 | 73 | 1015.4 |
| 20260507162122 | 51 | 306 | 3.5 | 5.2 | 0.00 | 0.00 | 0.00 | 75 | 1015.6 |
| 20260507161618 | 51 | 324 | 2.6 | 6.1 | 0.00 | 0.00 | 0.00 | 76 | 1015.7 |
| 20260507161115 | 51 | 303 | 5.2 | 7.0 | 0.00 | 0.00 | 0.00 | 74 | 1015.7 |
| 20260507160612 | 51 | 317 | 3.5 | 7.8 | 0.00 | 0.00 | 0.00 | 73 | 1015.8 |
| 20260507160108 | 52 | 259 | 4.3 | 7.0 | 0.00 | 0.00 | 0.00 | 71 | 1015.7 |
| 20260507155603 | 51 | 346 | 2.6 | 5.2 | 0.00 | 0.00 | 0.00 | 75 | 1015.9 |
| 20260507155100 | 51 | 2 | 4.3 | 7.0 | 0.00 | 0.00 | 0.00 | 73 | 1015.7 |
| 20260507154557 | 51 | 350 | 4.3 | 7.8 | 0.00 | 0.00 | 0.00 | 80 | 1015.7 |
| 20260507154054 | 51 | 332 | 3.5 | 6.1 | 0.00 | 0.00 | 0.00 | 78 | 1015.8 |
| 20260507153551 | 50 | 330 | 1.7 | 2.6 | 0.00 | 0.00 | 0.00 | 77 | 1015.7 |
| 20260507153047 | 50 | 341 | 2.6 | 6.1 | 0.00 | 0.00 | 0.00 | 79 | 1015.7 |
| 20260507152543 | 49 | 1 | 4.3 | 7.0 | 0.00 | 0.00 | 0.00 | 78 | 1015.9 |
| 20260507152040 | 49 | 344 | 4.3 | 6.1 | 0.00 | 0.00 | 0.00 | 77 | 1015.7 |
| 20260507151536 | 50 | 326 | 5.2 | 7.0 | 0.00 | 0.00 | 0.00 | 79 | 1015.9 |
| 20260507151033 | 50 | 10 | 3.5 | 5.2 | 0.00 | 0.00 | 0.00 | 79 | 1015.6 |
| 20260507150530 | 50 | 330 | 3.5 | 7.8 | 0.00 | 0.00 | 0.00 | 80 | 1015.8 |
| 20260507150027 | 50 | 20 | 3.5 | 6.1 | 0.00 | 0.00 | 0.00 | 78 | 1015.7 |
| 20260507145522 | 49 | 324 | 2.6 | 5.2 | 0.00 | 0.00 | 0.00 | 83 | 1015.9 |
| 20260507145020 | 48 | 344 | 2.6 | 7.0 | 0.00 | 0.00 | 0.00 | 82 | 1015.9 |
| 20260507144516 | 48 | 350 | 4.3 | 5.2 | 0.00 | 0.00 | 0.00 | 84 | 1016.0 |
| 20260507144014 | 48 | 341 | 1.7 | 3.5 | 0.00 | 0.00 | 0.00 | 86 | 1015.7 |
| 20260507143511 | 47 | 324 | 2.6 | 2.6 | 0.00 | 0.00 | 0.00 | 86 | 1015.8 |
| 20260507143008 | 47 | 343 | 3.5 | 7.0 | 0.00 | 0.00 | 0.00 | 86 | 1016.1 |
| 20260507142503 | 47 | 327 | 2.6 | 6.1 | 0.00 | 0.00 | 0.00 | 86 | 1016.0 |
| 20260507142001 | 46 | 334 | 1.7 | 3.5 | 0.00 | 0.00 | 0.00 | 87 | 1016.1 |
| 20260507141456 | 46 | 323 | 2.6 | 6.1 | 0.00 | 0.00 | 0.00 | 88 | 1016.2 |
| 20260507140953 | 46 | 348 | 5.2 | 6.1 | 0.00 | 0.00 | 0.00 | 88 | 1016.0 |
| 20260507140450 | 46 | 316 | 3.5 | 8.7 | 0.00 | 0.00 | 0.00 | 88 | 1016.2 |
| 20260507135948 | 46 | 326 | 3.5 | 5.2 | 0.00 | 0.00 | 0.00 | 90 | 1016.0 |
| 20260507135444 | 46 | 324 | 3.5 | 5.2 | 0.00 | 0.00 | 0.00 | 89 | 1016.1 |
| 20260507134942 | 46 | 351 | 2.6 | 7.0 | 0.00 | 0.00 | 0.00 | 90 | 1015.9 |
| 20260507134438 | 46 | 348 | 4.3 | 5.2 | 0.00 | 0.00 | 0.00 | 90 | 1016.2 |
| 20260507133934 | 46 | 315 | 2.6 | 6.1 | 0.00 | 0.00 | 0.00 | 91 | 1016.1 |
| 20260507133430 | 46 | 331 | 2.6 | 3.5 | 0.00 | 0.00 | 0.00 | 92 | 1016.5 |
| 20260507132929 | 46 | 321 | 3.5 | 3.5 | 0.00 | 0.00 | 0.00 | 93 | 1016.3 |
| 20260507132425 | 46 | 324 | 2.6 | 5.2 | 0.00 | 0.00 | 0.00 | 93 | 1016.2 |
| 20260507131921 | 46 | 331 | 2.6 | 3.5 | 0.00 | 0.00 | 0.00 | 94 | 1016.3 |
| 20260507131418 | 46 | 326 | 1.7 | 3.5 | 0.00 | 0.00 | 0.00 | 94 | 1016.5 |
| 20260507130915 | 46 | 319 | 1.7 | 5.2 | 0.00 | 0.00 | 0.00 | 94 | 1016.5 |
| 20260507130412 | 46 | 342 | 3.5 | 3.5 | 0.00 | 0.00 | 0.00 | 94 | 1016.3 |
| 20260507125911 | 46 | 333 | 2.6 | 3.5 | 0.00 | 0.00 | 0.00 | 94 | 1016.5 |
| 20260507125409 | 46 | 344 | 4.3 | 6.1 | 0.00 | 0.00 | 0.00 | 93 | 1016.3 |
| 20260507124906 | 46 | 332 | 5.2 | 6.1 | 0.00 | 0.00 | 0.00 | 93 | 1016.6 |
| 20260507124401 | 45 | 309 | 5.2 | 7.0 | 0.00 | 0.00 | 0.00 | 93 | 1016.6 |
| 20260507123900 | 45 | 314 | 4.3 | 6.1 | 0.00 | 0.00 | 0.00 | 94 | 1016.7 |
| 20260507123357 | 45 | 323 | 1.7 | 6.1 | 0.00 | 0.00 | 0.00 | 94 | 1016.3 |
| 20260507122853 | 45 | 338 | 3.5 | 3.5 | 0.00 | 0.00 | 0.00 | 94 | 1016.5 |
| 20260507122349 | 45 | 306 | 4.3 | 5.2 | 0.00 | 0.00 | 0.00 | 95 | 1016.7 |
| 20260507121845 | 45 | 314 | 4.3 | 6.1 | 0.00 | 0.00 | 0.00 | 95 | 1016.6 |
| 20260507121341 | 45 | 306 | 4.3 | 5.2 | 0.00 | 0.00 | 0.00 | 95 | 1016.3 |
| 20260507120838 | 45 | 325 | 3.5 | 6.1 | 0.00 | 0.00 | 0.00 | 95 | 1016.5 |
| 20260507120334 | 45 | 326 | 1.7 | 3.5 | 0.00 | 0.00 | 0.00 | 95 | 1015.8 |
| 20260507115830 | 45 | 311 | 5.2 | 6.1 | 0.00 | 0.00 | 0.00 | 96 | 1016.2 |
| 20260507115326 | 45 | 324 | 3.5 | 5.2 | 0.00 | 0.00 | 0.00 | 96 | 1016.1 |
| 20260507114822 | 45 | 319 | 2.6 | 2.6 | 0.00 | 0.00 | 0.00 | 97 | 1016.1 |
| 20260507114319 | 46 | 332 | 1.7 | 2.6 | 0.00 | 0.00 | 0.00 | 97 | 1016.0 |
| 20260507113817 | 45 | 347 | 4.3 | 5.2 | 0.00 | 0.00 | 0.00 | 97 | 1016.3 |
| 20260507113314 | 45 | 335 | 2.6 | 2.6 | 0.00 | 0.00 | 0.00 | 97 | 1016.0 |
| 20260507112811 | 45 | 333 | 2.6 | 3.5 | 0.00 | 0.00 | 0.00 | 97 | 1015.9 |
| 20260507112308 | 45 | 353 | 5.2 | 7.0 | 0.00 | 0.00 | 0.00 | 97 | 1016.1 |
| 20260507111806 | 45 | 340 | 2.6 | 3.5 | 0.00 | 0.00 | 0.00 | 97 | 1016.2 |
| 20260507111302 | 45 | 340 | 2.6 | 7.8 | 0.00 | 0.00 | 0.00 | 98 | 1016.0 |
| 20260507110758 | 45 | 335 | 2.6 | 3.5 | 0.00 | 0.00 | 0.00 | 99 | 1015.9 |
| 20260507110255 | 45 | 326 | 3.5 | 5.2 | 0.00 | 0.00 | 0.00 | 99 | 1015.7 |
| 20260507105752 | 46 | 348 | 2.6 | 2.6 | 0.00 | 0.00 | 0.00 | 99 | 1015.6 |
| 20260507105248 | 46 | 328 | 1.7 | 3.5 | 0.00 | 0.00 | 0.00 | 99 | 1015.7 |
| 20260507104745 | 46 | 321 | 1.7 | 2.6 | 0.00 | 0.00 | 0.00 | 99 | 1015.7 |
| 20260507104242 | 46 | 353 | 2.6 | 3.5 | 0.00 | 0.00 | 0.00 | 99 | 1015.3 |
| 20260507103738 | 46 | 333 | 0.9 | 1.7 | 0.00 | 0.00 | 0.00 | 99 | 1015.4 |
| 20260507103234 | 46 | 343 | 2.6 | 2.6 | 0.00 | 0.00 | 0.00 | 99 | 1015.6 |
| 20260507102730 | 46 | 336 | 1.7 | 2.6 | 0.00 | 0.00 | 0.00 | 99 | 1015.5 |